Volver al catálogo

STARLINK-36646

ActivoComunicacionesVLEO
NORAD 67823·PAYLOAD·🇺🇸 United States

Lanzado Feb 16, 2026 desde Vandenberg Space Force Base

Loading…

Próximos Pases (próximas 24 horas)

TLE

ActualizadoSource: CelesTrak SupGP

Época: Sep 15, 2026, 03:57 UTC

1 67823C 26033C   26258.16506944 -.00014376  00000+0 -52114-3 0  2584
2 67823  43.0026 277.0140 0001718 264.4219  25.8109 15.27556291    18

Sigue STARLINK-36646 en tiempo real con AllMySat

Download on the App Store